Weather History for KGED - December, 2012

Change the Weather History Date:

Monday, December 3, 2012

  Actual Average Record
Temperature  
Mean Temperature 59 °F 43 °F  
Max Temperature 71 °F 52 °F 71 °F (2012)
Min Temperature 47 °F 34 °F 12 °F (1976)
Degree Days  
Heating Degree Days 6 22  
Month to date heating degree days 39 65  
Since 1 July heating degree days 860 849  
Cooling Degree Days 0 0  
Month to date cooling degree days 0 0  
Year to date cooling degree days 1616 1196  
Growing Degree Days 9 (Base 50)    
Moisture  
Dew Point 50 °F    
Average Humidity 71    
Maximum Humidity 89    
Minimum Humidity 53    
Precipitation  
Precipitation 0.00 in 0.13 in 2.83 in (1967)
Month to date precipitation T 0.36  
Year to date precipitation 33.01 40.84  
Sea Level Pressure  
Sea Level Pressure 30.23 in    
Wind  
Wind Speed 2 mph (WSW)    
Max Wind Speed 13 mph    
Max Gust Speed 17 mph    
Visibility 9 miles    
Events      
T = Trace of Precipitation, MM = Missing Value Source: NWS Daily Summary

Daily Weather History Graph

Daily Weather History Graph

Search for Another Location

Airport or City:

Trip Planner

Search our weather history database for the weather conditions in past years. The results will help you decide how hot, cold, wet, or windy it might be!

Date:

Astronomy

Dec. 03, 2012 Rise Set
Actual Time 7:02 AM EST 4:39 PM EST
Civil Twilight 6:33 AM EST 5:09 PM EST
Nautical Twilight 6:00 AM EST 5:42 PM EST
Astronomical Twilight 5:28 AM EST 6:14 PM EST
Moon 9:22 PM EST (12/3) 10:26 AM EST (12/3)
Length of Visible Light 10h 36m
Length of Day
9h 37m
Waning Gibbous, 78% of the Moon is Illuminated
Dec 3
Waning Gibbous
Dec 6
Last Quarter
Dec 13
New
Dec 20
First Quarter
Dec 28
Full

Hourly Weather History & Observations

Time (EST) Temp. Dew Point Humidity Pressure Visibility Wind Dir Wind Speed Gust Speed Precip Events Conditions
12:54 AM 57.9 °F 48.0 °F 70% 30.17 in 10.0 mi SW 9.2 mph - N/A   Overcast
1:54 AM 57.9 °F 48.0 °F 70% 30.17 in 10.0 mi WSW 9.2 mph - N/A   Scattered Clouds
2:54 AM 55.9 °F 48.0 °F 75% 30.18 in 10.0 mi SW 5.8 mph - N/A   Clear
3:54 AM 55.9 °F 48.0 °F 75% 30.18 in 10.0 mi SW 3.5 mph - N/A   Overcast
4:54 AM 55.0 °F 48.0 °F 77% 30.18 in 10.0 mi West 3.5 mph - N/A   Partly Cloudy
5:54 AM 54.0 °F 48.0 °F 80% 30.20 in 10.0 mi Calm Calm - N/A   Partly Cloudy
6:54 AM 48.9 °F 45.0 °F 86% 30.22 in 6.0 mi Calm Calm - N/A   Clear
7:54 AM 51.1 °F 46.9 °F 86% 30.24 in 8.0 mi Calm Calm - N/A   Clear
8:54 AM 57.9 °F 50.0 °F 75% 30.25 in 10.0 mi Calm Calm - N/A   Clear
9:54 AM 61.0 °F 50.0 °F 67% 30.26 in 10.0 mi West 4.6 mph - N/A   Clear
10:54 AM 66.0 °F 52.0 °F 60% 30.25 in 10.0 mi Variable 3.5 mph - N/A   Clear
11:54 AM 68.0 °F 52.0 °F 56% 30.23 in 10.0 mi Calm Calm - N/A   Clear
12:54 PM 69.1 °F 52.0 °F 54% 30.20 in 10.0 mi Variable 3.5 mph - N/A   Clear
1:54 PM 70.0 °F 52.0 °F 53% 30.19 in 10.0 mi WNW 4.6 mph - N/A   Clear
2:54 PM 70.0 °F 52.0 °F 53% 30.20 in 10.0 mi West 5.8 mph - N/A   Clear
3:54 PM 69.1 °F 52.0 °F 54% 30.21 in 10.0 mi Calm Calm - N/A   Clear
4:54 PM 62.1 °F 52.0 °F 70% 30.23 in 10.0 mi Calm Calm - N/A   Clear
5:54 PM 59.0 °F 51.1 °F 75% 30.25 in 10.0 mi Calm Calm - N/A   Clear
6:54 PM 55.9 °F 50.0 °F 80% 30.27 in 10.0 mi Calm Calm - N/A   Clear
7:54 PM 57.0 °F 50.0 °F 77% 30.26 in 10.0 mi Calm Calm - N/A   Scattered Clouds
8:54 PM 57.0 °F 50.0 °F 77% 30.27 in 9.0 mi Calm Calm - N/A   Overcast
9:54 PM 51.1 °F 48.0 °F 89% 30.27 in 6.0 mi South 3.5 mph - N/A   Clear
10:54 PM 53.1 °F 48.9 °F 86% 30.26 in 7.0 mi Calm Calm - N/A   Mostly Cloudy
11:54 PM 50.0 °F 48.0 °F 93% 30.27 in 2.5 mi Calm Calm - N/A   Mostly Cloudy